Cadillac, MI

2:46 PM EST on November 13, 2019 (GMT -0500)
Wexford County

Weather History for KCAD - October, 2019

Change the Weather History Date:

Monday, October 21, 2019

  Actual Average Record
Temperature  
Mean Temperature 52 °F -  
Max Temperature 59 °F 52 °F 81 °F (1953)
Min Temperature 44 °F 34 °F 11 °F (1952)
Degree Days  
Heating Degree Days 14    
Growing Degree Days 2 (Base 50)    
Moisture  
Dew Point 49 °F    
Average Humidity 89    
Maximum Humidity 92    
Minimum Humidity 77    
Precipitation  
Precipitation 0.00 in - - ()
Sea Level Pressure  
Sea Level Pressure 29.73 in    
Wind  
Wind Speed 11 mph (ESE)    
Max Wind Speed 28 mph    
Max Gust Speed 40 mph    
Visibility 9 miles    
Events Rain    
Averages and records for this station are not official NWS values.
T = Trace of Precipitation, MM = Missing Value Source: NWS Daily Summary

Daily Weather History Graph

Daily Weather History Graph

Search for Another Location

Airport or City:

Astronomy

Oct. 21, 2019 Rise Set
Actual Time 8:03 AM EDT 6:47 PM EDT
Civil Twilight 7:34 AM EDT 7:17 PM EDT
Nautical Twilight 7:00 AM EDT 7:51 PM EDT
Astronomical Twilight 6:27 AM EDT 8:24 PM EDT
Moon No Moon Rise 3:29 PM EDT (10/21)
Length of Visible Light 11h 43m
Length of Day
10h 44m
Waning Gibbous, 48% of the Moon is Illuminated
Oct 21
Waning Gibbous
Oct 27
New
Nov 4
First Quarter
Nov 12
Full
Nov 19
Last Quarter

Hourly Weather History & Observations

Time (EDT) Temp. Windchill Dew Point Humidity Pressure Visibility Wind Dir Wind Speed Gust Speed Precip Events Conditions
12:17 AM 46.0 °F 42.5 °F 43.3 °F 90% 29.97 in 10.0 mi East 6.9 mph - N/A   Clear
12:35 AM 46.4 °F 42.4 °F 43.9 °F 91% 29.97 in 10.0 mi ENE 8.1 mph - N/A   Clear
12:55 AM 46.4 °F 43.5 °F 43.9 °F 91% 29.97 in 10.0 mi ENE 5.8 mph - N/A   Clear
1:15 AM 46.6 °F - 44.1 °F 91% 29.96 in 10.0 mi ENE 4.6 mph - N/A   Clear
1:20 AM 46.6 °F - 44.1 °F 91% 29.96 in 10.0 mi ENE 3.5 mph - N/A   Clear
1:38 AM 46.2 °F 44.1 °F 43.7 °F 91% 29.96 in 10.0 mi ENE 4.6 mph - N/A   Clear
1:55 AM 45.5 °F 43.2 °F 43.0 °F 91% 29.96 in 10.0 mi ENE 4.6 mph - N/A   Clear
2:15 AM 45.0 °F 42.6 °F 42.4 °F 91% 29.97 in 10.0 mi ENE 4.6 mph - N/A   Clear
2:16 AM 45.0 °F 42.6 °F 42.4 °F 91% 29.97 in 10.0 mi ENE 4.6 mph - N/A   Clear
2:35 AM 44.6 °F 43.1 °F 42.1 °F 91% 29.97 in 10.0 mi NE 3.5 mph - N/A   Clear
2:36 AM 44.6 °F 43.1 °F 42.1 °F 91% 29.97 in 10.0 mi NE 3.5 mph - N/A   Clear
2:59 AM 44.1 °F 42.5 °F 41.5 °F 91% 29.96 in 10.0 mi ENE 3.5 mph - N/A   Clear
3:17 AM 44.1 °F 42.5 °F 41.5 °F 91% 29.96 in 10.0 mi NE 3.5 mph - N/A   Clear
3:35 AM 44.6 °F 40.2 °F 41.9 °F 90% 29.94 in 10.0 mi ENE 8.1 mph - N/A   Scattered Clouds
3:36 AM 44.4 °F 40.0 °F 41.9 °F 91% 29.94 in 10.0 mi ENE 8.1 mph - N/A   Scattered Clouds
3:55 AM 45.9 °F 41.2 °F 43.5 °F 92% 29.92 in 7.0 mi East 9.2 mph 16.1 mph N/A   Mostly Cloudy
3:56 AM 45.9 °F 41.7 °F 43.5 °F 92% 29.92 in 7.0 mi East 8.1 mph 16.1 mph N/A   Mostly Cloudy
4:15 AM 46.4 °F 41.5 °F 43.7 °F 90% 29.96 in 5.0 mi ESE 10.4 mph - N/A   Overcast
4:20 AM 46.4 °F 41.5 °F 43.9 °F 91% 29.95 in 5.0 mi East 10.4 mph - N/A   Overcast
4:38 AM 46.6 °F - 43.9 °F 90% 29.94 in 5.0 mi East 8.1 mph - N/A   Overcast
4:56 AM 46.6 °F - 44.1 °F 91% 29.95 in 7.0 mi East 9.2 mph - N/A   Overcast
5:15 AM 46.6 °F - 44.1 °F 91% 29.94 in 7.0 mi East 10.4 mph - N/A   Overcast
5:35 AM 47.5 °F - 45.0 °F 91% 29.93 in 7.0 mi East 11.5 mph - N/A   Overcast
5:59 AM 48.2 °F - 45.7 °F 91% 29.92 in 10.0 mi East 11.5 mph - N/A   Overcast
6:17 AM 48.4 °F - 45.9 °F 91% 29.92 in 10.0 mi East 12.7 mph - N/A   Overcast
6:35 AM 48.6 °F - 46.0 °F 91% 29.91 in 10.0 mi East 11.5 mph 17.3 mph N/A   Overcast
6:55 AM 48.4 °F - 45.9 °F 91% 29.91 in 10.0 mi East 15.0 mph 18.4 mph N/A   Overcast
7:15 AM 48.2 °F - 45.5 °F 90% 29.89 in 10.0 mi East 13.8 mph 19.6 mph N/A   Overcast
7:20 AM 47.8 °F - 45.3 °F 91% 29.89 in 10.0 mi East 15.0 mph 19.6 mph N/A   Overcast
7:38 AM 47.8 °F - 45.1 °F 90% 29.89 in 10.0 mi East 12.7 mph 20.7 mph N/A   Mostly Cloudy
7:56 AM 47.7 °F - 45.1 °F 91% 29.88 in 10.0 mi East 13.8 mph 18.4 mph N/A   Mostly Cloudy
8:15 AM 48.0 °F - 45.5 °F 91% 29.86 in 10.0 mi East 15.0 mph 21.9 mph N/A   Mostly Cloudy
8:16 AM 48.0 °F - 45.5 °F 91% 29.85 in 10.0 mi East 12.7 mph 21.9 mph N/A   Mostly Cloudy
8:35 AM 48.2 °F - 45.5 °F 90% 29.84 in 10.0 mi East 18.4 mph 24.2 mph N/A   Mostly Cloudy
8:36 AM 48.2 °F - 45.5 °F 90% 29.83 in 10.0 mi East 17.3 mph 24.2 mph N/A   Mostly Cloudy
8:58 AM 48.2 °F - 45.7 °F 91% 29.84 in 10.0 mi East 15.0 mph 20.7 mph N/A   Mostly Cloudy
9:17 AM 48.9 °F - 46.4 °F 91% 29.85 in 10.0 mi East 16.1 mph 21.9 mph N/A   Mostly Cloudy
9:35 AM 49.3 °F - 46.8 °F 91% 29.84 in 10.0 mi East 17.3 mph 24.2 mph N/A   Overcast
9:55 AM 49.5 °F - 46.9 °F 91% 29.83 in 10.0 mi East 16.1 mph 20.7 mph N/A   Overcast
10:15 AM 50.0 °F - 47.3 °F 90% 29.81 in 10.0 mi East 16.1 mph 20.7 mph N/A   Overcast
10:38 AM 50.7 °F - 48.2 °F 91% 29.81 in 10.0 mi East 13.8 mph 19.6 mph N/A   Overcast
10:56 AM 51.3 °F - 48.4 °F 90% 29.79 in 10.0 mi East 11.5 mph 17.3 mph N/A   Overcast
11:15 AM 51.4 °F - 48.6 °F 90% 29.78 in 10.0 mi East 13.8 mph 19.6 mph N/A   Mostly Cloudy
11:16 AM 51.4 °F - 48.6 °F 90% 29.78 in 10.0 mi East 16.1 mph 19.6 mph N/A   Mostly Cloudy
11:35 AM 52.2 °F - 48.7 °F 88% 29.77 in 10.0 mi ESE 13.8 mph 21.9 mph N/A   Scattered Clouds
11:59 AM 52.7 °F - 48.9 °F 87% 29.74 in 10.0 mi East 17.3 mph 21.9 mph N/A   Scattered Clouds
12:17 PM 53.6 °F - 49.1 °F 85% 29.72 in 10.0 mi ESE 15.0 mph 25.3 mph N/A   Scattered Clouds
12:35 PM 54.1 °F - 49.1 °F 83% 29.71 in 10.0 mi ESE 20.7 mph 26.5 mph N/A   Mostly Cloudy
12:36 PM 54.3 °F - 49.1 °F 83% 29.71 in 10.0 mi East 18.4 mph 26.5 mph N/A   Mostly Cloudy
12:55 PM 55.4 °F - 49.6 °F 81% 29.68 in 10.0 mi ESE 18.4 mph 27.6 mph N/A   Mostly Cloudy
12:56 PM 55.4 °F - 49.6 °F 81% 29.68 in 10.0 mi ESE 18.4 mph 27.6 mph N/A   Mostly Cloudy
1:15 PM 56.5 °F - 50.0 °F 79% 29.66 in 10.0 mi ESE 18.4 mph 27.6 mph N/A   Mostly Cloudy
1:20 PM 56.8 °F - 50.4 °F 79% 29.66 in 10.0 mi ESE 18.4 mph 27.6 mph N/A   Mostly Cloudy
1:38 PM 57.0 °F - 51.8 °F 83% 29.65 in 10.0 mi SE 18.4 mph 27.6 mph N/A Rain Rain
1:56 PM 56.1 °F - 53.4 °F 91% 29.63 in 5.0 mi SE 20.7 mph 32.2 mph N/A Rain Light Rain
2:15 PM 56.5 °F - 53.8 °F 91% 29.62 in 5.0 mi SE 23.0 mph 31.1 mph N/A Rain Light Rain
2:35 PM 56.5 °F - 53.8 °F 91% 29.55 in 5.0 mi ESE 27.6 mph 35.7 mph N/A Rain Rain
3:17 PM 57.7 °F - 55.0 °F 91% 29.55 in 10.0 mi SE 20.7 mph 36.8 mph N/A   Overcast
3:35 PM 58.5 °F - 55.8 °F 91% 29.52 in 10.0 mi ESE 27.6 mph 39.1 mph N/A   Overcast
3:55 PM 58.5 °F - 55.8 °F 91% 29.53 in 10.0 mi ESE 20.7 mph 40.3 mph N/A   Overcast
4:38 PM 58.1 °F - 55.4 °F 91% 29.52 in 5.0 mi SE 19.6 mph 28.8 mph N/A Rain Light Rain
4:56 PM 58.1 °F - 55.4 °F 91% 29.52 in 4.0 mi SE 18.4 mph 29.9 mph N/A Rain Rain
5:15 PM 58.3 °F - 55.6 °F 91% 29.51 in 10.0 mi SE 21.9 mph 28.8 mph N/A Rain Light Rain
5:35 PM 58.3 °F - 55.6 °F 91% 29.50 in 5.0 mi SE 18.4 mph 29.9 mph N/A Rain Rain
5:59 PM 58.1 °F - 55.4 °F 91% 29.50 in 2.0 mi SE 19.6 mph 28.8 mph N/A Rain Rain
6:17 PM 58.3 °F - 55.6 °F 91% 29.50 in 2.5 mi SSE 16.1 mph 29.9 mph N/A Rain Light Rain
6:35 PM 58.6 °F - 55.9 °F 91% 29.50 in 10.0 mi SSE 17.3 mph 25.3 mph N/A Rain Light Rain
6:36 PM 58.6 °F - 55.9 °F 91% 29.50 in 10.0 mi SSE 15.0 mph 23.0 mph N/A Rain Light Rain
6:55 PM 59.0 °F - 56.3 °F 91% 29.50 in 7.0 mi SSE 12.7 mph 24.2 mph N/A Rain Light Rain
6:56 PM 59.0 °F - 56.3 °F 91% 29.50 in 7.0 mi SSE 15.0 mph 24.2 mph N/A Rain Rain
7:15 PM 59.0 °F - 56.3 °F 91% 29.49 in 10.0 mi SSE 12.7 mph 20.7 mph N/A Rain Light Rain
7:20 PM 59.0 °F - 56.3 °F 91% 29.49 in 10.0 mi SE 11.5 mph 17.3 mph N/A   Overcast
7:38 PM 59.0 °F - 56.3 °F 91% 29.48 in 10.0 mi SSE 11.5 mph 19.6 mph N/A Rain Light Rain
7:56 PM 59.0 °F - 56.3 °F 91% 29.49 in 10.0 mi SSE 13.8 mph 19.6 mph N/A   Overcast
8:15 PM 59.5 °F - 56.8 °F 91% 29.49 in 10.0 mi SSE 13.8 mph 19.6 mph N/A   Overcast
8:35 PM 59.9 °F - 57.2 °F 91% 29.50 in 10.0 mi SSE 9.2 mph 18.4 mph N/A   Overcast
8:36 PM 59.9 °F - 57.2 °F 91% 29.50 in 10.0 mi SSE 9.2 mph 18.4 mph N/A   Overcast
8:59 PM 59.4 °F - 56.7 °F 91% 29.49 in 10.0 mi South 6.9 mph - N/A   Mostly Cloudy
9:17 PM 59.7 °F - 57.0 °F 91% 29.48 in 10.0 mi SSE 8.1 mph - N/A   Overcast
9:35 PM 59.4 °F - 56.7 °F 91% 29.48 in 10.0 mi South 10.4 mph - N/A   Overcast
9:55 PM 59.4 °F - 56.7 °F 91% 29.49 in 10.0 mi South 8.1 mph - N/A Rain Light Rain
10:15 PM 59.4 °F - 56.7 °F 91% 29.49 in 10.0 mi SSW 11.5 mph 17.3 mph N/A   Light Drizzle
10:38 PM 59.0 °F - 55.8 °F 89% 29.49 in 10.0 mi SSW 11.5 mph - N/A   Overcast
10:56 PM 58.3 °F - 54.7 °F 88% 29.50 in 10.0 mi SSW 8.1 mph - N/A   Overcast
11:15 PM 57.0 °F - 53.2 °F 87% 29.50 in 10.0 mi SSW 9.2 mph - N/A   Overcast
11:16 PM 57.0 °F - 53.1 °F 87% 29.50 in 10.0 mi SSW 6.9 mph - N/A   Overcast
11:35 PM 55.6 °F - 48.6 °F 77% 29.50 in 10.0 mi SSW 12.7 mph - N/A   Scattered Clouds
11:36 PM 55.4 °F - 48.6 °F 78% 29.50 in 10.0 mi SSW 12.7 mph - N/A   Scattered Clouds
11:59 PM 54.7 °F - 48.2 °F 79% 29.51 in 10.0 mi South 6.9 mph - N/A   Clear